Starlink 30784

operational
NORAD ID: 58156 Int'l Des: 2023-166 Owner: SPXS Country: US Constellation: starlink
LEOCIRCULAR

Starlink 30784について

説明を読み込み中...

リアルタイム位置

3D地球を読み込み中...

次回通過

高度履歴

Altitude vs Time

uPlot chart will show altitude changes over time

軌道要素

1 58156U 23166G 25305.14334534 .00000126 00000-0 16393-4 0 9990
2 58156 53.1603 97.0145 0001233 97.8654 262.2487 15.30188013113342
Epoch: Nov 1, 2025 • Age: 34 hours

現在のステータス

高度 478.9 km
速度 7.63 km/s
衛星直下点 -12.30°S, 168.98°W
打ち上げ日 Oct 29, 2023
運用期間 2 years
タイプ internet

技術仕様

分類 Payload
質量 730.00 kg
乾燥質量 700.00 kg
総質量 730.00 kg
長さ 0.30 m
直径 4.10 m
スパン 29.00 m
形状 Box + pan
製造者 SPXS
バスタイプ Starlink V2M
フェーズステータス In Orbit
所有者/国 SPXS/US

大規模コンステレーション

Loading constellations...